Regional Weather Roundup
Issued by NWS

Home | Current Version | Previous Version | Graphics & Text | Print | Product List | Glossary On
Versions: 1 2 3 4 5 6 7 8 9 10 11 12 13 14 15 16 17 18 19 20 21 22 23 24 25 26 27 28 29 30 31 32 33 34 35 36 37 38 39 40 41 42 43 44 45 46 47 48 49 50
000
ASUS43 KOAX 212202
RWRNE

WEATHER ROUNDUP FOR NEBRASKA
NATIONAL WEATHER SERVICE OMAHA NE
500 PM CDT THU AUG 21 2014

NOTES: SATELLITE DATA IS BEING USED TO AUGMENT CLOUD COVER ABOVE
       12000 FEET.
       "FAIR" INDICATES FEW OR NO CLOUDS BELOW 12,000 FEET WITH NO
       SIGNIFICANT WEATHER AND/OR OBSTRUCTIONS TO VISIBILITY.

  * THESE STATIONS DO NOT REPORT WEATHER SUCH AS RAIN...SNOW OR FOG.

NEZ001>004-019>022-054>056-212300-
NEBRASKA PANHANDLE

CITY           SKY/WX    TMP DP  RH WIND       PRES   REMARKS
SCOTTSBLUFF    MOSUNNY   89  46  22 NW6       30.00S
ALLIANCE       PTSUNNY   85  49  28 E8        29.99S
CHADRON        MOSUNNY   89  54  30 SE13G21   29.93S
KIMBALL        MOSUNNY   83  42  24 W7        30.05F
SIDNEY         MOSUNNY   89  46  22 CALM      30.03S
$$

NEZ057>060-069>072-079>082-212300-
SOUTHWEST NEBRASKA

CITY           SKY/WX    TMP DP  RH WIND       PRES   REMARKS
NORTH PLATTE   SUNNY     89  65  44 SE7       29.91R HX  91
IMPERIAL       SUNNY     90  52  27 NW9       29.95S
LEXINGTON      SUNNY     89  68  49 CALM      29.89S HX  92
MCCOOK         MOSUNNY   93  53  25 NW3       29.89S HX  90
OGALLALA       SUNNY     88  52  28 CALM      29.94S
$$

NEZ005>010-023>029-035>040-094-212300-
NORTH CENTRAL NEBRASKA

CITY           SKY/WX    TMP DP  RH WIND       PRES   REMARKS
VALENTINE      SUNNY     89  55  31 E5        29.93S
AINSWORTH      SUNNY     85  59  40 E6        29.92S
BROKEN BOW     SUNNY     89  69  51 N7        29.91R HX  93
O`NEILL        SUNNY     87  68  52 N6        29.88S HX  91
ORD            SUNNY     90  69  50 N3        29.87R HX  94
THEDFORD       SUNNY     88  60  38 NE5       29.95S
$$

NEZ041-046>049-061>064-073>077-083>087-212300-
SOUTH CENTRAL NEBRASKA

CITY           SKY/WX    TMP DP  RH WIND       PRES   REMARKS
GRAND ISLAND   SUNNY     87  72  60 SE5       29.87S HX  93
AURORA         SUNNY     86  72  63 CALM      29.87S HX  92
HASTINGS       MOSUNNY   86  69  56 NE3       29.86F HX  90
HEBRON         MOSUNNY   90  71  53 CALM      29.82F HX  95
HOLDREGE       SUNNY     87  71  58 E5        29.88R HX  92
KEARNEY *      MOSUNNY   88  72  58 E5        29.88S HX  94
YORK           MOSUNNY   86 N/A N/A CALM      29.86F
$$

NEZ011>018-030>034-042>045-212300-
NORTHEAST NEBRASKA

CITY           SKY/WX    TMP DP  RH WIND       PRES   REMARKS
NORFOLK        PTSUNNY   89  70  53 W3        29.84R HX  94
ALBION         MOSUNNY   88  67  49 CALM      29.86S HX  91
BLAIR          MOSUNNY   89  71  54 SW13      29.85S HX  95
FREMONT        MOSUNNY   91  69  49 SW12G17   29.85R HX  95
TEKAMAH        SUNNY     91  71  51 SW10      29.82R HX  97
WAYNE          SUNNY     89  73  60 W6        29.84S HX  97
$$

NEZ050>053-065>068-078-088>093-212300-
SOUTHEAST NEBRASKA

CITY           SKY/WX    TMP DP  RH WIND       PRES   REMARKS
LINCOLN        MOSUNNY   89  71  55 CALM      29.85S HX  95
OMAHA EPPLEY   MOSUNNY   92  70  48 SW8       29.83S HX  97
BEATRICE       MOSUNNY   92  74  56 SW7       29.83R HX 102
FALLS CITY     PTSUNNY   94  73  50 S9        29.80S HX 103
NEBRASKA CITY  CLOUDY    84  75  73 N6        29.83S HX  92
PLATTSMOUTH    CLOUDY    89  71  55 CALM      29.85R HX  94
$$

NEZ044-045-051>053-067-212300-
OMAHA AREA

CITY           SKY/WX    TMP DP  RH WIND       PRES   REMARKS
OMAHA EPPLEY   MOSUNNY   92  70  48 SW8       29.83S HX  97
BLAIR          MOSUNNY   89  71  54 SW13      29.85S HX  95
FREMONT        MOSUNNY   91  69  49 SW12G17   29.85R HX  95
MILLARD        PTSUNNY   90  72  55 W7        29.83S HX  97
OFFUTT AFB     PTSUNNY   90  75  62 W6        29.83S HX 100
PLATTSMOUTH    CLOUDY    89  71  55 CALM      29.85R HX  94
WAHOO          FAIR      89  68  49 SW10      29.84S HX  93
$$



USA.gov is the U.S. government's official web portal to all federal, state and local government web resources and services.